Location: Spring Creek
(38.2870°N, 100.2160°W)
Time: 12:04:14
(UTC+00:00)

Cosmos 1727 Rocket - Pass Details

Date: 08 May 2021
Orbit: 960 x 997 km, 82.9° (Epoch: 22 June)

Event Time Altitude Azimuth Distance (km) Brightness Sun altitude
Exits shadow 08:46:06 56° 266° (W) 1,161 4.1 -26.8°
Maximum altitude 08:46:26 57° 280° (W) 1,153 4.1 -26.8°
Drops below altitude 10° 08:52:41 10° 358° (N) 2,767 7.0 -26.1°
Sets 08:55:17 0° 3° (N) 3,723 7.9 -25.8°
